Tracking 19846 objects as of 19-Sep-2019
HD Live streaming from Space Station
objects crossing your sky now

FENGYUN 1C DEB

Track FENGYUN 1C DEB now!
10-day predictions


NORAD ID: 31954
Int'l Code: 1999-025CNF
Perigee: 841.0 km
Apogee: 975.2 km
Inclination: 98.1 °
Period: 103.0 minutes
Semi major axis: 7279 km
RCS: 0.0089 m2 (small)
Launch date: May 10, 1999
Source: People's Republic of China (PRC)
Launch site: Taiyaun Space Center, China (TSC)

Note: This is SATELLITE DEBRIS
aabbcc
Your satellite tracking list
Your tracking list is empty




NASA's NSSDC Master Catalog

Two Line Element Set (TLE):
1 31954U 99025CNF 19257.83852219  .00000698  00000-0  49940-3 0  9991
2 31954  98.1199 120.7640 0092183 145.2619 215.4614 13.97929170632262
Source of the keplerian elements: AFSPC